This is the latest recevied weather packets stored in our database for station/object WB0YAF-8. If no packets are shown the sender has not sent any weather packets the latest 10 day(s).
| Time | Temp. | Humidity | Pressure | Rain* | Wind** | Luminosity | Snow |
|---|---|---|---|---|---|---|---|
| 1777645974 | 8.89° C | 38% | 1020.8 hPa | 0 mm | - | - | - |
| 1777645674 | 8.89° C | 38% | 1020.8 hPa | 0 mm | - | - | - |
| 1777645375 | 10.56° C | 37% | 1020.8 hPa | 0 mm | - | - | - |
| 1777645075 | 11.11° C | 36% | 1020.8 hPa | 0 mm | - | - | - |
| 1777644775 | 11.11° C | 37% | 1020.8 hPa | 0 mm | - | - | - |
| 1777644474 | 11.11° C | 37% | 1020.8 hPa | 0 mm | - | - | - |
| 1777644173 | 11.11° C | 37% | 1020.8 hPa | 0 mm | - | - | - |
| 1777643873 | 10.56° C | 37% | 1020.8 hPa | 0 mm | - | - | - |
| 1777643575 | 10.56° C | 37% | 1020.8 hPa | 0 mm | - | - | - |
| 1777643275 | 10° C | 38% | 1020.8 hPa | 0 mm | - | - | - |
| 1777642975 | 9.44° C | 38% | 1020.8 hPa | 0 mm | - | - | - |
| 1777642675 | 8.89° C | 38% | 1020.8 hPa | 0 mm | - | - | - |
| 1777642375 | 8.33° C | 39% | 1020.8 hPa | 0 mm | - | - | - |
| 1777642075 | 7.78° C | 40% | 1020.8 hPa | 0 mm | - | - | - |
| 1777641773 | 7.22° C | 41% | 1020.8 hPa | 0 mm | - | - | - |
| 1777641474 | 6.11° C | 42% | 1020.8 hPa | 0 mm | - | - | - |
| 1777641174 | 5.56° C | 46% | 1020.8 hPa | 0 mm | - | - | - |
| 1777640875 | 4.44° C | 49% | 1020.8 hPa | 0 mm | - | - | - |
| 1777640575 | 4.44° C | 49% | 1020.8 hPa | 0 mm | - | - | - |
| 1777640275 | 3.89° C | 53% | 1020.8 hPa | 0 mm | - | - | - |
| 1777639973 | 2.78° C | 54% | 1020.8 hPa | 0 mm | - | - | - |
| 1777639673 | 2.22° C | 54% | 1020.8 hPa | 0 mm | - | - | - |
| 1777639375 | 2.22° C | 55% | 1020.8 hPa | 0 mm | - | - | - |
| 1777639074 | 1.67° C | 60% | 1020.8 hPa | 0 mm | - | - | - |
| 1777638774 | 1.11° C | 60% | 1020.8 hPa | 0 mm | - | - | - |
* Rain latest hour (hover to see other rain measurements)
** Current wind speed in m/s (hover to see current wind gust speed)